Location: Domont
(49.0278°N, 2.3264°E)
Time: 03:55:49
(UTC+00:00)

DIWATA 2B (PO-101) - Pass Details

Date: 29 June 2022
Orbit: 583 x 599 km, 98.0° (Epoch: 13 August)

Event Time Altitude Azimuth Distance (km) Brightness Sun altitude
Exits shadow 01:22:58 15° 154° (SSE) 1,641 ? -15.1°
Maximum altitude 01:26:25 68° 73° (ENE) 651 ? -14.9°
Drops below altitude 10° 01:30:37 10° 351° (N) 1,952 ? -14.6°
Sets 01:32:48 0° 349° (N) 2,859 ? -14.5°
